Truckee-Tahoe, CA

11:25 AM PDT on July 22, 2017 (GMT -0700)
Truckee-Tahoe

Weather History for KTRK - September, 2013

Change the Weather History Date:

Saturday, September 21, 2013

  Actual Average Record
Temperature  
Mean Temperature 45 °F -  
Max Temperature 53 °F 70 °F 85 °F (1974)
Min Temperature 37 °F 31 °F 21 °F (1968)
Degree Days  
Heating Degree Days 20    
Moisture  
Dew Point 36 °F    
Average Humidity 73    
Maximum Humidity 93    
Minimum Humidity 50    
Precipitation  
Precipitation 0.00 in - - ()
Sea Level Pressure  
Sea Level Pressure 29.91 in    
Wind  
Wind Speed 12 mph (SW)    
Max Wind Speed 24 mph    
Max Gust Speed 33 mph    
Visibility 9 miles    
Events Rain    
Averages and records for this station are not official NWS values.
T = Trace of Precipitation, MM = Missing Value Source: NWS Daily Summary

Daily Weather History Graph

Daily Weather History Graph

Search for Another Location

Airport or City:

Trip Planner

Search our weather history database for the weather conditions in past years. The results will help you decide how hot, cold, wet, or windy it might be!

Date:

Astronomy

Sep. 21, 2013 Rise Set
Actual Time 6:47 AM PDT 6:58 PM PDT
Civil Twilight 6:20 AM PDT 7:25 PM PDT
Nautical Twilight 5:49 AM PDT 7:56 PM PDT
Astronomical Twilight 5:17 AM PDT 8:28 PM PDT
Moon 8:13 PM PDT (9/21) 9:10 AM PDT (9/21)
Length of Visible Light 13h 04m
Length of Day
12h 11m
Waning Gibbous, 94% of the Moon is Illuminated
Sep 21
Waning Gibbous
Sep 26
Last Quarter
Oct 4
New
Oct 11
First Quarter
Oct 18
Full

Hourly Weather History & Observations

Time (PDT) Temp. Windchill Dew Point Humidity Pressure Visibility Wind Dir Wind Speed Gust Speed Precip Events Conditions
12:15 AM 50.0 °F - 32.0 °F 50% 29.96 in 10.0 mi SSW 13.8 mph 17.3 mph N/A   Clear
12:35 AM 48.2 °F - 32.0 °F 54% 29.96 in 10.0 mi SSW 12.7 mph - N/A   Clear
12:55 AM 50.0 °F - 32.0 °F 50% 29.95 in 10.0 mi SSW 10.4 mph 18.4 mph N/A   Clear
1:15 AM 50.0 °F - 32.0 °F 50% 29.95 in 10.0 mi SSW 12.7 mph 24.2 mph N/A   Clear
1:35 AM 50.0 °F - 32.0 °F 50% 29.94 in 10.0 mi SSW 16.1 mph - N/A   Clear
1:55 AM 50.0 °F - 33.8 °F 54% 29.94 in 10.0 mi SW 17.3 mph 25.3 mph N/A   Clear
2:15 AM 50.0 °F - 33.8 °F 54% 29.94 in 10.0 mi SSW 15.0 mph 20.7 mph N/A   Clear
2:35 AM 50.0 °F - 35.6 °F 58% 29.94 in 10.0 mi SSW 16.1 mph 26.5 mph N/A   Clear
2:55 AM 50.0 °F - 35.6 °F 58% 29.94 in 10.0 mi SSW 13.8 mph 26.5 mph N/A   Clear
3:15 AM 48.2 °F - 35.6 °F 62% 29.93 in 10.0 mi South 16.1 mph 23.0 mph N/A   Clear
3:35 AM 50.0 °F - 35.6 °F 58% 29.93 in 10.0 mi SW 15.0 mph 25.3 mph N/A   Clear
3:55 AM 48.2 °F - 37.4 °F 66% 29.93 in 10.0 mi SSW 11.5 mph 23.0 mph N/A   Clear
4:15 AM 48.2 °F - 35.6 °F 62% 29.92 in 10.0 mi SSW 13.8 mph 21.9 mph N/A   Partly Cloudy
4:35 AM 50.0 °F - 35.6 °F 58% 29.91 in 10.0 mi SSW 16.1 mph 23.0 mph N/A   Partly Cloudy
4:55 AM 50.0 °F - 35.6 °F 58% 29.91 in 10.0 mi SSW 15.0 mph 27.6 mph N/A   Scattered Clouds
5:15 AM 50.0 °F - 35.6 °F 58% 29.90 in 10.0 mi SSW 17.3 mph 24.2 mph N/A   Scattered Clouds
5:35 AM 50.0 °F - 35.6 °F 58% 29.90 in 10.0 mi SW 13.8 mph 25.3 mph N/A   Clear
5:55 AM 50.0 °F - 35.6 °F 58% 29.90 in 10.0 mi SSW 17.3 mph 21.9 mph N/A   Clear
6:15 AM 50.0 °F - 35.6 °F 58% 29.90 in 10.0 mi South 13.8 mph 25.3 mph N/A   Clear
6:35 AM 50.0 °F - 35.6 °F 58% 29.90 in 10.0 mi SSW 16.1 mph 19.6 mph N/A   Partly Cloudy
6:55 AM 50.0 °F - 35.6 °F 58% 29.90 in 10.0 mi SW 12.7 mph 20.7 mph N/A   Scattered Clouds
7:45 AM 50.0 °F - 35.6 °F 58% 29.89 in 10.0 mi South 13.8 mph 18.4 mph N/A   Scattered Clouds
8:45 AM 53.6 °F - 37.4 °F 54% 29.88 in 10.0 mi SSW 13.8 mph 18.4 mph N/A   Mostly Cloudy
9:45 AM 53.6 °F - 37.4 °F 54% 29.88 in 10.0 mi SW 24.2 mph 33.4 mph N/A   Mostly Cloudy
10:45 AM 48.2 °F - 42.8 °F 82% 29.88 in 6.0 mi SW 15.0 mph - N/A Rain Light Rain
11:45 AM 46.4 °F 41.1 °F 41.0 °F 81% 29.90 in 5.0 mi SSW 11.5 mph 21.9 mph N/A Rain Light Rain
12:50 PM 44.6 °F 38.4 °F 41.0 °F 87% 29.89 in 5.0 mi SSW 12.7 mph 18.4 mph N/A Rain Light Rain
1:50 PM 46.4 °F 40.4 °F 41.0 °F 81% 29.87 in 4.0 mi SW 13.8 mph 19.6 mph N/A Rain Light Rain
2:45 PM 44.6 °F 40.2 °F 41.0 °F 87% 29.87 in 6.0 mi West 8.1 mph - N/A Rain Light Rain
3:45 PM 41.0 °F 34.7 °F 37.4 °F 87% 29.87 in 5.0 mi WNW 10.4 mph - N/A Rain Light Rain
4:50 PM 39.2 °F 37.0 °F 35.6 °F 87% 29.88 in 4.0 mi ENE 3.5 mph - N/A Rain Light Rain
5:45 PM 37.4 °F 30.8 °F 35.6 °F 93% 29.88 in 5.0 mi NNW 9.2 mph - N/A Rain Light Rain
5:55 PM 37.4 °F 32.1 °F 35.6 °F 93% 29.88 in 10.0 mi NNW 6.9 mph - N/A   Overcast
6:15 PM 37.4 °F 34.9 °F 35.6 °F 93% 29.89 in 9.0 mi West 3.5 mph - N/A   Overcast
6:35 PM 37.4 °F 33.8 °F 35.6 °F 93% 29.89 in 10.0 mi SSW 4.6 mph - N/A   Overcast
6:55 PM 37.4 °F 33.8 °F 35.6 °F 93% 29.90 in 10.0 mi SE 4.6 mph - N/A   Mostly Cloudy
7:15 PM 37.4 °F 34.9 °F 33.8 °F 87% 29.90 in 10.0 mi West 3.5 mph - N/A   Overcast
7:35 PM 37.4 °F 33.8 °F 32.0 °F 81% 29.88 in 10.0 mi ESE 4.6 mph - N/A   Mostly Cloudy
7:55 PM 37.4 °F 33.8 °F 33.8 °F 87% 29.88 in 10.0 mi South 4.6 mph - N/A   Mostly Cloudy
8:15 PM 37.4 °F 34.9 °F 35.6 °F 93% 29.91 in 10.0 mi WSW 3.5 mph - N/A   Mostly Cloudy
8:35 PM 37.4 °F 34.9 °F 35.6 °F 93% 29.91 in 10.0 mi South 3.5 mph - N/A   Mostly Cloudy
8:55 PM 37.4 °F 34.9 °F 35.6 °F 93% 29.91 in 10.0 mi SW 3.5 mph - N/A   Mostly Cloudy
9:15 PM 37.4 °F - 33.8 °F 87% 29.91 in 10.0 mi Calm Calm - N/A Rain Light Rain
9:35 PM 37.4 °F 33.8 °F 33.8 °F 87% 29.91 in 10.0 mi West 4.6 mph - N/A   Overcast
9:55 PM 37.4 °F - 33.8 °F 87% 29.92 in 10.0 mi Calm Calm - N/A   Mostly Cloudy
10:15 PM 37.4 °F 34.9 °F 33.8 °F 87% 29.92 in 10.0 mi West 3.5 mph - N/A   Overcast
10:35 PM 37.4 °F 34.9 °F 33.8 °F 87% 29.92 in 10.0 mi West 3.5 mph - N/A   Overcast
10:55 PM 37.4 °F - 33.8 °F 87% 29.92 in 10.0 mi Calm Calm - N/A   Overcast
11:15 PM 37.4 °F - 35.6 °F 93% 29.92 in 10.0 mi Calm Calm - N/A   Overcast
11:35 PM 37.4 °F - 35.6 °F 93% 29.93 in 10.0 mi Calm Calm - N/A   Overcast
11:55 PM 37.4 °F - 35.6 °F 93% 29.94 in 10.0 mi Calm Calm - N/A   Overcast